contact:dominique.lefevre@mio.osupytheas.fr, maurice.libes@osupytheas.fr, didier.mallarino@osupytheas.fr
Project:EMSO http://www.emso-fr.org/EMSO-France
Depth: 2436.0 m
Title:EMSO Ligure Ouest : Data MII capteur AQUADOPP
Date,Latitude,Longitude,X_East,Y_North,Z_Up,Amplitude_X,Amplitude_Y,Amplitude_Z,Batterie,SoundSpeed,Heading,Pitch,Roll,Pressure,TIS,Speed,Direction
, degrees North, degrees East, m.s-1, m.s-1,m.s-1, 1, 1, 1, Volt, m.s-1, degree, degree, degree, dbar, degree_C, m.s-1, degree
2023-05-04T00:04:03,42.805,6.029,-0.011,0.013,-0.037,101.0,101.0,100.0,13.3,1505.2,335.0,-0.8,1.8,2471.348,13.29,0.017,319.8
2023-05-04T00:07:03,42.805,6.029,0.0,0.002,-0.037,101.0,100.0,101.0,13.3,1505.2,334.3,-0.8,1.8,2471.357,13.29,0.002,0.0
2023-05-04T00:10:03,42.805,6.029,-0.03,0.012,-0.021,102.0,100.0,100.0,13.3,1505.2,319.1,-0.8,1.8,2471.374,13.29,0.032,291.8
2023-05-04T00:13:03,42.805,6.029,-0.002,0.034,-0.014,102.0,100.0,100.0,13.4,1505.2,326.7,-0.8,1.8,2471.347,13.29,0.034,356.6
2023-05-04T00:16:03,42.805,6.029,0.004,0.016,-0.036,100.0,99.0,101.0,13.4,1505.2,318.3,-0.8,1.8,2471.3,13.29,0.016,14.0
2023-05-04T00:19:03,42.805,6.029,-0.018,0.01,-0.032,101.0,99.0,100.0,13.4,1505.2,336.8,-0.8,1.8,2471.292,13.29,0.02,299.1
2023-05-04T00:22:03,42.805,6.029,-0.011,0.039,-0.013,100.0,102.0,100.0,13.4,1505.2,326.5,-0.7,1.8,2471.307,13.29,0.04,344.3
2023-05-04T00:25:03,42.805,6.029,-0.012,0.003,-0.05,101.0,101.0,101.0,13.4,1505.2,328.8,-0.8,1.8,2471.29,13.29,0.012,284.0
2023-05-04T00:28:03,42.805,6.029,-0.04,0.022,-0.054,101.0,101.0,100.0,13.4,1505.2,323.5,-0.7,1.8,2471.285,13.29,0.045,298.8
2023-05-04T00:31:03,42.805,6.029,-0.01,0.012,-0.036,101.0,101.0,100.0,13.4,1505.2,329.2,-0.8,1.8,2471.342,13.29,0.015,320.2
2023-05-04T00:34:03,42.805,6.029,0.024,0.016,-0.003,101.0,101.0,101.0,13.4,1505.2,342.6,-0.7,1.8,2471.305,13.29,0.028,56.3
2023-05-04T00:37:03,42.805,6.029,-0.045,0.019,-0.038,101.0,101.0,100.0,13.4,1505.2,316.9,-0.8,1.8,2471.3,13.29,0.048,292.9
2023-05-04T00:40:03,42.805,6.029,-0.021,0.021,-0.003,101.0,100.0,101.0,13.3,1505.2,334.4,-0.8,1.8,2471.321,13.29,0.029,315.0
2023-05-04T00:43:03,42.805,6.029,-0.017,0.025,-0.046,101.0,102.0,100.0,13.4,1505.2,331.4,-0.8,1.8,2471.297,13.29,0.03,325.8
2023-05-04T00:46:03,42.805,6.029,0.005,0.021,-0.011,101.0,101.0,100.0,13.3,1505.2,321.4,-0.8,1.8,2471.285,13.29,0.021,13.4
2023-05-04T00:49:03,42.805,6.029,-0.016,0.008,-0.038,102.0,100.0,99.0,13.4,1505.2,319.7,-0.8,1.9,2471.249,13.29,0.017,296.6
2023-05-04T00:52:03,42.805,6.029,-0.012,0.009,-0.06,100.0,101.0,100.0,13.4,1505.2,334.4,-0.8,1.8,2471.288,13.29,0.015,306.9
2023-05-04T00:55:03,42.805,6.029,-0.024,0.049,-0.023,100.0,101.0,99.0,13.4,1505.2,330.3,-0.8,1.8,2471.272,13.29,0.054,333.9
2023-05-04T00:58:03,42.805,6.029,-0.004,0.014,-0.044,100.0,101.0,101.0,13.3,1505.2,339.9,-0.7,1.8,2471.29,13.29,0.014,344.1
2023-05-04T01:04:03,42.805,6.029,-0.024,0.026,-0.04,105.0,104.0,101.0,13.3,1505.2,323.8,-0.7,1.8,2471.357,13.29,0.035,317.3
2023-05-04T01:07:03,42.805,6.029,-0.043,0.018,-0.035,102.0,101.0,102.0,13.4,1505.2,343.4,-0.8,1.8,2471.329,13.29,0.046,292.7
2023-05-04T01:10:03,42.805,6.029,-0.025,0.014,-0.042,102.0,100.0,101.0,13.4,1505.2,318.6,-0.8,1.8,2471.311,13.29,0.028,299.3
2023-05-04T01:13:03,42.805,6.029,0.007,0.02,-0.043,101.0,100.0,100.0,13.4,1505.2,321.7,-0.7,1.8,2471.31,13.29,0.021,19.3
2023-05-04T01:16:03,42.805,6.029,-0.009,0.02,-0.019,101.0,102.0,101.0,13.4,1505.2,324.4,-0.8,1.8,2471.294,13.29,0.021,335.8
2023-05-04T01:19:03,42.805,6.029,-0.005,0.021,-0.023,104.0,101.0,99.0,13.4,1505.2,333.4,-0.8,1.8,2471.321,13.29,0.021,346.6
2023-05-04T01:22:03,42.805,6.029,0.0,0.001,-0.034,101.0,102.0,100.0,13.4,1505.2,343.4,-0.8,1.8,2471.341,13.29,0.001,0.0
2023-05-04T01:25:03,42.805,6.029,0.006,0.021,-0.019,100.0,102.0,101.0,13.4,1505.2,319.7,-0.8,1.8,2471.295,13.29,0.021,15.9
2023-05-04T01:28:03,42.805,6.029,-0.02,0.015,-0.018,101.0,101.0,100.0,13.3,1505.2,322.9,-0.8,1.8,2471.319,13.29,0.025,306.9
2023-05-04T01:31:03,42.805,6.029,-0.02,0.0,-0.055,102.0,101.0,100.0,13.4,1505.2,325.1,-0.8,1.8,2471.319,13.29,0.02,270.0
2023-05-04T01:34:03,42.805,6.029,-0.002,0.017,-0.041,102.0,99.0,100.0,13.3,1505.2,343.6,-0.7,1.8,2471.32,13.29,0.017,353.3
2023-05-04T01:37:03,42.805,6.029,0.018,0.007,-0.008,102.0,101.0,101.0,13.4,1505.2,335.4,-0.8,1.8,2471.289,13.29,0.019,68.8
2023-05-04T01:40:03,42.805,6.029,-0.013,0.046,0.001,102.0,102.0,101.0,13.4,1505.2,330.9,-0.8,1.8,2471.357,13.29,0.047,344.2
2023-05-04T01:43:03,42.805,6.029,-0.01,0.016,-0.029,102.0,101.0,100.0,13.4,1505.2,344.0,-0.7,1.9,2471.301,13.29,0.018,328.0
2023-05-04T01:46:03,42.805,6.029,-0.032,0.019,-0.035,101.0,101.0,100.0,13.4,1505.2,324.2,-0.7,1.8,2471.331,13.29,0.037,300.7
2023-05-04T01:49:03,42.805,6.029,-0.003,0.01,-0.036,102.0,100.0,100.0,13.3,1505.2,333.9,-0.8,1.8,2471.305,13.29,0.01,343.3
2023-05-04T01:52:03,42.805,6.029,0.0,0.009,-0.032,101.0,102.0,100.0,13.3,1505.2,345.1,-0.8,1.8,2471.309,13.29,0.009,0.0
2023-05-04T01:55:03,42.805,6.029,-0.011,0.008,-0.05,101.0,102.0,100.0,13.3,1505.2,329.8,-0.8,1.8,2471.339,13.29,0.013,306.0
2023-05-04T01:58:03,42.805,6.029,0.004,0.024,-0.018,99.0,101.0,102.0,13.4,1505.2,326.0,-0.8,1.8,2471.314,13.29,0.024,9.5
2023-05-04T02:04:03,42.805,6.029,-0.007,0.022,-0.033,103.0,101.0,100.0,13.4,1505.2,332.5,-0.8,1.8,2471.373,13.29,0.023,342.4
2023-05-04T02:07:03,42.805,6.029,-0.011,0.035,0.002,102.0,101.0,102.0,13.4,1505.2,346.5,-0.8,1.8,2471.385,13.29,0.036,342.6
2023-05-04T02:10:03,42.805,6.029,-0.019,0.029,-0.032,101.0,102.0,100.0,13.4,1505.2,329.9,-0.8,1.8,2471.295,13.29,0.034,326.8
2023-05-04T02:13:03,42.805,6.029,-0.015,0.02,-0.053,101.0,100.0,101.0,13.4,1505.2,326.3,-0.8,1.8,2471.369,13.29,0.025,323.1
2023-05-04T02:16:03,42.805,6.029,0.007,0.015,-0.021,100.0,103.0,101.0,13.3,1505.2,345.1,-0.7,1.8,2471.327,13.29,0.016,25.0
2023-05-04T02:19:03,42.805,6.029,-0.009,0.015,-0.004,101.0,101.0,101.0,13.4,1505.2,336.3,-0.8,1.8,2471.328,13.29,0.017,329.0
2023-05-04T02:22:03,42.805,6.029,0.003,0.002,-0.032,103.0,100.0,101.0,13.3,1505.2,342.2,-0.8,1.8,2471.353,13.29,0.003,56.3
2023-05-04T02:25:03,42.805,6.029,-0.011,0.017,-0.053,102.0,100.0,101.0,13.4,1505.2,318.9,-0.8,1.8,2471.324,13.29,0.02,327.1
2023-05-04T02:28:03,42.805,6.029,-0.002,0.02,-0.032,99.0,101.0,101.0,13.4,1505.2,323.6,-0.8,1.9,2471.334,13.29,0.02,354.3
2023-05-04T02:31:03,42.805,6.029,0.017,0.012,-0.013,102.0,102.0,100.0,13.3,1505.2,335.1,-0.7,1.8,2471.367,13.29,0.02,54.8
2023-05-04T02:34:03,42.805,6.029,-0.02,0.022,-0.023,101.0,102.0,100.0,13.4,1505.2,332.4,-0.8,1.8,2471.386,13.29,0.029,317.7
2023-05-04T02:37:03,42.805,6.029,0.006,0.018,-0.03,101.0,101.0,101.0,13.4,1505.2,346.2,-0.8,1.8,2471.33,13.29,0.018,18.4
2023-05-04T02:40:03,42.805,6.029,0.017,0.016,-0.043,102.0,101.0,100.0,13.4,1505.2,328.4,-0.7,1.8,2471.323,13.29,0.023,46.7
2023-05-04T02:43:03,42.805,6.029,-0.025,0.012,-0.047,101.0,100.0,101.0,13.3,1505.2,327.5,-0.8,1.8,2471.338,13.29,0.027,295.6
2023-05-04T02:46:03,42.805,6.029,-0.002,0.026,-0.008,100.0,103.0,101.0,13.4,1505.2,326.0,-0.7,1.8,2471.326,13.29,0.026,355.6
2023-05-04T02:49:03,42.805,6.029,-0.037,0.043,-0.021,102.0,99.0,100.0,13.4,1505.2,317.4,-0.7,1.8,2471.33,13.29,0.056,319.3
2023-05-04T02:52:03,42.805,6.029,0.014,0.021,-0.012,100.0,101.0,100.0,13.4,1505.2,330.9,-0.7,1.8,2471.314,13.29,0.025,33.7
2023-05-04T02:55:03,42.805,6.029,0.007,0.027,-0.036,101.0,102.0,100.0,13.4,1505.2,337.6,-0.8,1.8,2471.316,13.29,0.027,14.5
2023-05-04T02:58:03,42.805,6.029,-0.01,0.017,-0.046,101.0,102.0,100.0,13.4,1505.2,332.5,-0.8,1.8,2471.356,13.29,0.019,329.5
2023-05-04T03:04:03,42.805,6.029,-0.029,0.007,-0.079,102.0,102.0,101.0,13.4,1505.2,328.1,-0.8,1.8,2471.372,13.29,0.029,283.6
2023-05-04T03:07:03,42.805,6.029,0.002,0.006,-0.04,101.0,102.0,101.0,13.4,1505.2,324.2,-0.8,1.8,2471.386,13.29,0.006,18.4
2023-05-04T03:10:03,42.805,6.029,0.008,0.018,0.021,102.0,102.0,100.0,13.4,1505.2,338.6,-0.8,1.8,2471.39,13.29,0.019,24.0
2023-05-04T03:13:03,42.805,6.029,-0.013,0.037,-0.023,101.0,100.0,100.0,13.4,1505.2,320.4,-0.8,1.8,2471.432,13.29,0.039,340.6
2023-05-04T03:16:03,42.805,6.029,0.009,0.046,0.008,102.0,100.0,100.0,13.4,1505.2,336.3,-0.7,1.8,2471.376,13.29,0.046,11.1
2023-05-04T03:19:03,42.805,6.029,-0.017,0.037,-0.046,100.0,101.0,100.0,13.3,1505.2,345.1,-0.8,1.8,2471.387,13.29,0.04,335.3
2023-05-04T03:22:03,42.805,6.029,-0.019,0.039,-0.018,103.0,101.0,99.0,13.4,1505.2,338.8,-0.8,1.8,2471.394,13.29,0.043,334.0
2023-05-04T03:25:03,42.805,6.029,0.007,0.023,-0.008,102.0,99.0,101.0,13.4,1505.2,342.9,-0.8,1.8,2471.372,13.29,0.024,16.9
2023-05-04T03:28:03,42.805,6.029,-0.034,0.035,-0.036,101.0,101.0,101.0,13.4,1505.2,332.9,-0.8,1.8,2471.393,13.29,0.048,315.8
2023-05-04T03:31:03,42.805,6.029,-0.009,0.032,-0.042,100.0,102.0,100.0,13.4,1505.2,328.4,-0.7,1.9,2471.399,13.29,0.033,344.3
2023-05-04T03:34:03,42.805,6.029,0.0,0.028,-0.055,102.0,103.0,101.0,13.4,1505.2,318.1,-0.8,1.8,2471.381,13.29,0.028,0.0
2023-05-04T03:37:03,42.805,6.029,-0.002,0.012,-0.044,101.0,102.0,101.0,13.3,1505.2,328.3,-0.8,1.9,2471.36,13.29,0.012,350.5
2023-05-04T03:40:03,42.805,6.029,0.008,0.034,-0.036,103.0,101.0,99.0,13.4,1505.2,344.6,-0.7,1.8,2471.353,13.29,0.034,13.2
2023-05-04T03:43:03,42.805,6.029,-0.012,0.008,-0.025,101.0,101.0,101.0,13.4,1505.2,321.8,-0.8,1.9,2471.367,13.29,0.014,303.7
2023-05-04T03:46:03,42.805,6.029,0.014,0.004,-0.036,101.0,101.0,99.0,13.4,1505.2,337.5,-0.8,1.8,2471.386,13.29,0.014,74.1
2023-05-04T03:49:03,42.805,6.029,-0.028,0.039,-0.037,101.0,100.0,101.0,13.4,1505.2,333.9,-0.8,1.8,2471.399,13.29,0.048,324.3
2023-05-04T03:52:03,42.805,6.029,-0.014,0.028,-0.02,101.0,100.0,101.0,13.3,1505.2,345.4,-0.8,1.8,2471.413,13.29,0.031,333.4
2023-05-04T03:55:03,42.805,6.029,0.005,0.03,-0.021,101.0,101.0,99.0,13.4,1505.2,335.8,-0.8,1.8,2471.411,13.29,0.03,9.5
2023-05-04T03:58:03,42.805,6.029,0.013,0.009,-0.002,101.0,101.0,101.0,13.4,1505.2,342.3,-0.8,1.8,2471.395,13.29,0.015,55.3
2023-05-04T04:04:03,42.805,6.029,0.001,0.003,-0.017,101.0,102.0,100.0,13.4,1505.2,329.0,-0.8,1.8,2471.497,13.29,0.003,18.4
2023-05-04T04:07:03,42.805,6.029,-0.024,0.01,-0.066,101.0,101.0,100.0,13.3,1505.2,326.7,-0.8,1.8,2471.442,13.29,0.026,292.6
2023-05-04T04:10:03,42.805,6.029,-0.01,0.022,-0.041,102.0,100.0,100.0,13.4,1505.2,322.3,-0.7,1.8,2471.391,13.29,0.024,335.6
2023-05-04T04:13:03,42.805,6.029,-0.01,0.041,-0.016,101.0,101.0,100.0,13.4,1505.2,329.0,-0.8,1.8,2471.455,13.29,0.042,346.3
2023-05-04T04:16:03,42.805,6.029,-0.018,0.038,-0.026,101.0,101.0,101.0,13.3,1505.2,324.8,-0.8,1.8,2471.456,13.29,0.042,334.7
2023-05-04T04:19:03,42.805,6.029,-0.018,0.023,-0.062,101.0,101.0,102.0,13.4,1505.2,345.4,-0.8,1.8,2471.452,13.29,0.029,322.0
2023-05-04T04:22:03,42.805,6.029,0.003,0.009,-0.046,101.0,101.0,100.0,13.3,1505.2,327.0,-0.8,1.8,2471.456,13.29,0.009,18.4
2023-05-04T04:25:03,42.805,6.029,-0.001,0.004,-0.074,100.0,101.0,101.0,13.4,1505.2,330.5,-0.7,1.8,2471.464,13.29,0.004,346.0
2023-05-04T04:28:03,42.805,6.029,0.003,0.019,-0.048,101.0,101.0,100.0,13.3,1505.2,332.9,-0.8,1.8,2471.447,13.29,0.019,9.0
2023-05-04T04:31:03,42.805,6.029,0.009,0.029,-0.024,101.0,101.0,100.0,13.3,1505.2,329.6,-0.7,1.8,2471.434,13.29,0.03,17.2
2023-05-04T04:34:03,42.805,6.029,-0.007,0.01,-0.064,100.0,101.0,101.0,13.4,1505.2,340.8,-0.8,1.8,2471.482,13.29,0.012,325.0
2023-05-04T04:37:03,42.805,6.029,-0.003,0.017,-0.038,101.0,101.0,99.0,13.4,1505.2,332.4,-0.8,1.8,2471.418,13.29,0.017,350.0
2023-05-04T04:40:03,42.805,6.029,-0.047,0.03,-0.024,101.0,102.0,101.0,13.4,1505.2,323.4,-0.7,1.8,2471.464,13.29,0.055,302.6
2023-05-04T04:43:03,42.805,6.029,-0.008,0.005,-0.035,101.0,101.0,101.0,13.3,1505.2,325.7,-0.8,1.8,2471.457,13.29,0.009,302.0
2023-05-04T04:46:03,42.805,6.029,-0.014,0.012,-0.049,101.0,101.0,101.0,13.4,1505.2,338.2,-0.8,1.8,2471.419,13.29,0.018,310.6
2023-05-04T04:49:03,42.805,6.029,-0.017,0.026,-0.04,101.0,100.0,100.0,13.4,1505.2,316.8,-0.8,1.8,2471.452,13.29,0.031,326.8
2023-05-04T04:52:03,42.805,6.029,-0.011,0.034,-0.034,101.0,100.0,100.0,13.4,1505.2,337.1,-0.8,1.8,2471.425,13.29,0.035,342.1
2023-05-04T04:55:03,42.805,6.029,-0.008,0.035,-0.049,101.0,101.0,100.0,13.4,1505.2,328.6,-0.8,1.8,2471.493,13.29,0.035,347.1
2023-05-04T04:58:03,42.805,6.029,-0.021,0.03,-0.056,104.0,99.0,103.0,13.4,1505.2,345.2,-0.7,1.8,2471.462,13.29,0.036,325.0
2023-05-04T05:04:03,42.805,6.029,-0.007,0.014,-0.047,102.0,101.0,99.0,13.4,1505.2,342.3,-0.7,1.8,2471.466,13.29,0.015,333.4
2023-05-04T05:07:03,42.805,6.029,-0.01,0.028,-0.055,100.0,101.0,100.0,13.3,1505.2,333.4,-0.8,1.8,2471.482,13.29,0.029,340.4
2023-05-04T05:10:03,42.805,6.029,-0.016,0.031,-0.039,102.0,101.0,100.0,13.3,1505.2,339.9,-0.8,1.8,2471.484,13.29,0.034,332.7
2023-05-04T05:13:03,42.805,6.029,0.013,-0.009,-0.074,103.0,102.0,99.0,13.4,1505.2,318.6,-0.8,1.8,2471.484,13.29,0.015,124.7
2023-05-04T05:16:03,42.805,6.029,-0.015,0.02,-0.043,101.0,101.0,101.0,13.4,1505.2,325.5,-0.8,1.8,2471.53,13.29,0.025,323.1
2023-05-04T05:19:03,42.805,6.029,0.0,0.017,-0.074,102.0,101.0,99.0,13.3,1505.2,325.1,-0.7,1.8,2471.496,13.29,0.017,0.0
2023-05-04T05:22:03,42.805,6.029,-0.01,0.016,-0.027,102.0,102.0,100.0,13.4,1505.2,327.5,-0.8,1.8,2471.481,13.29,0.018,328.0
2023-05-04T05:25:03,42.805,6.029,-0.013,0.019,-0.05,101.0,101.0,101.0,13.3,1505.2,338.5,-0.7,1.8,2471.475,13.29,0.023,325.6
2023-05-04T05:28:03,42.805,6.029,-0.019,0.009,-0.048,101.0,101.0,100.0,13.4,1505.2,318.0,-0.8,1.8,2471.493,13.29,0.021,295.3
2023-05-04T05:31:03,42.805,6.029,-0.019,0.009,-0.043,101.0,102.0,99.0,13.4,1505.2,327.0,-0.7,1.8,2471.511,13.29,0.021,295.3
2023-05-04T05:34:03,42.805,6.029,-0.043,0.026,-0.052,101.0,102.0,100.0,13.3,1505.2,325.0,-0.7,1.8,2471.491,13.29,0.05,301.2
2023-05-04T05:37:03,42.805,6.029,0.01,0.018,-0.02,102.0,101.0,101.0,13.3,1505.2,345.9,-0.7,1.8,2471.491,13.29,0.02,29.1
2023-05-04T05:40:03,42.805,6.029,-0.008,0.028,-0.028,101.0,102.0,100.0,13.4,1505.2,335.4,-0.8,1.8,2471.529,13.29,0.029,344.1
2023-05-04T05:43:03,42.805,6.029,0.006,0.033,-0.034,101.0,103.0,101.0,13.4,1505.2,342.9,-0.8,1.8,2471.484,13.29,0.033,10.3
2023-05-04T05:46:03,42.805,6.029,-0.007,0.024,-0.044,102.0,102.0,100.0,13.4,1505.2,319.8,-0.8,1.8,2471.488,13.29,0.025,343.7
2023-05-04T05:49:03,42.805,6.029,0.014,0.036,-0.02,102.0,101.0,100.0,13.4,1505.2,326.0,-0.8,1.8,2471.462,13.29,0.038,21.2
2023-05-04T05:52:03,42.805,6.029,-0.017,0.031,-0.034,101.0,102.0,100.0,13.4,1505.2,323.4,-0.8,1.8,2471.509,13.29,0.035,331.3
2023-05-04T05:55:03,42.805,6.029,-0.005,0.012,-0.038,104.0,100.0,100.0,13.4,1505.2,329.3,-0.7,1.8,2471.463,13.29,0.013,337.4
2023-05-04T05:58:03,42.805,6.029,-0.001,0.045,-0.017,101.0,103.0,100.0,13.3,1505.2,337.1,-0.7,1.8,2471.5,13.29,0.045,358.7
2023-05-04T06:04:03,42.805,6.029,0.016,-0.006,-0.069,100.0,102.0,100.0,13.4,1505.2,327.5,-0.8,1.8,2471.542,13.29,0.017,110.6
2023-05-04T06:07:03,42.805,6.029,0.027,0.012,-0.023,101.0,103.0,100.0,13.4,1505.2,331.7,-0.8,1.8,2471.537,13.29,0.029,66.0
2023-05-04T06:10:03,42.805,6.029,0.0,0.023,-0.044,100.0,103.0,101.0,13.3,1505.2,333.9,-0.8,1.8,2471.546,13.29,0.023,0.0
2023-05-04T06:13:03,42.805,6.029,-0.022,0.032,-0.002,103.0,99.0,101.0,13.4,1505.2,318.7,-0.8,1.8,2471.495,13.29,0.038,325.5
2023-05-04T06:16:03,42.805,6.029,0.005,0.002,-0.018,101.0,101.0,100.0,13.4,1505.2,332.5,-0.8,1.8,2471.513,13.29,0.005,68.2
2023-05-04T06:19:03,42.805,6.029,-0.003,0.028,-0.045,99.0,102.0,100.0,13.3,1505.2,333.0,-0.7,1.8,2471.518,13.29,0.028,353.9
2023-05-04T06:22:03,42.805,6.029,-0.019,0.022,-0.044,104.0,101.0,100.0,13.4,1505.2,334.9,-0.7,1.8,2471.476,13.29,0.029,319.2
2023-05-04T06:25:03,42.805,6.029,0.018,0.016,-0.017,101.0,101.0,101.0,13.4,1505.2,341.5,-0.8,1.8,2471.489,13.29,0.024,48.4
2023-05-04T06:28:03,42.805,6.029,0.007,0.023,-0.052,101.0,100.0,101.0,13.4,1505.2,335.0,-0.8,1.8,2471.508,13.29,0.024,16.9
2023-05-04T06:31:03,42.805,6.029,-0.026,0.044,-0.031,101.0,102.0,100.0,13.4,1505.2,320.1,-0.8,1.8,2471.519,13.29,0.051,329.4
2023-05-04T06:34:03,42.805,6.029,-0.009,0.007,-0.046,101.0,101.0,101.0,13.3,1505.2,323.6,-0.7,1.8,2471.504,13.29,0.011,307.9
2023-05-04T06:37:03,42.805,6.029,0.006,0.029,0.002,103.0,101.0,100.0,13.4,1505.2,342.3,-0.8,1.8,2471.505,13.29,0.029,11.7
2023-05-04T06:40:03,42.805,6.029,-0.02,0.019,-0.009,102.0,102.0,100.0,13.4,1505.2,319.8,-0.8,1.8,2471.472,13.29,0.027,313.5
2023-05-04T06:43:03,42.805,6.029,-0.006,0.021,-0.02,104.0,102.0,101.0,13.4,1505.2,325.6,-0.8,1.8,2471.522,13.29,0.021,344.1
2023-05-04T06:46:03,42.805,6.029,0.016,0.002,-0.041,102.0,101.0,101.0,13.3,1505.2,328.8,-0.7,1.8,2471.465,13.29,0.016,82.9
2023-05-04T06:49:03,42.805,6.029,-0.027,0.038,-0.013,101.0,103.0,101.0,13.4,1505.2,328.0,-0.8,1.8,2471.511,13.29,0.046,324.6
2023-05-04T06:52:03,42.805,6.029,-0.025,0.031,-0.022,101.0,102.0,101.0,13.3,1505.2,330.3,-0.8,1.8,2471.495,13.29,0.039,321.1
2023-05-04T06:55:03,42.805,6.029,-0.006,0.034,-0.032,103.0,101.0,101.0,13.4,1505.2,323.8,-0.7,1.8,2471.488,13.29,0.034,350.0
2023-05-04T06:58:03,42.805,6.029,-0.01,0.029,-0.042,103.0,103.0,102.0,13.4,1505.2,336.8,-0.8,1.8,2471.457,13.29,0.03,341.0
2023-05-04T07:04:03,42.805,6.029,-0.024,0.02,-0.047,103.0,103.0,101.0,13.4,1505.2,325.2,-0.8,1.8,2471.486,13.29,0.031,309.8
2023-05-04T07:07:03,42.805,6.029,0.008,0.023,-0.028,104.0,103.0,101.0,13.4,1505.2,324.2,-0.7,1.8,2471.518,13.29,0.024,19.2
2023-05-04T07:10:03,42.805,6.029,0.001,0.026,-0.029,105.0,104.0,102.0,13.4,1505.2,337.5,-0.8,1.8,2471.524,13.29,0.026,2.2
2023-05-04T07:13:03,42.805,6.029,-0.001,0.024,0.009,103.0,103.0,102.0,13.4,1505.2,332.1,-0.7,1.9,2471.471,13.29,0.024,357.6
2023-05-04T07:16:03,42.805,6.029,-0.014,0.024,-0.019,103.0,104.0,101.0,13.4,1505.2,332.9,-0.7,1.8,2471.531,13.29,0.027,329.7
2023-05-04T07:19:03,42.805,6.029,-0.005,0.017,-0.026,105.0,102.0,102.0,13.4,1505.2,333.8,-0.7,1.8,2471.493,13.29,0.017,343.6
2023-05-04T07:22:03,42.805,6.029,-0.028,0.03,-0.01,102.0,103.0,102.0,13.4,1505.2,326.0,-0.8,1.8,2471.485,13.29,0.041,317.0
2023-05-04T07:25:03,42.805,6.029,-0.005,0.028,-0.02,101.0,104.0,101.0,13.4,1505.2,344.8,-0.8,1.8,2471.469,13.29,0.028,349.9
2023-05-04T07:28:03,42.805,6.029,-0.016,0.025,-0.02,102.0,103.0,101.0,13.4,1505.2,341.9,-0.8,1.8,2471.49,13.29,0.029,327.4
2023-05-04T07:31:03,42.805,6.029,-0.011,0.009,-0.074,104.0,103.0,102.0,13.3,1505.2,323.4,-0.8,1.8,2471.484,13.29,0.014,309.3
2023-05-04T07:34:03,42.805,6.029,-0.008,0.029,-0.038,102.0,103.0,101.0,13.4,1505.2,333.4,-0.8,1.8,2471.497,13.29,0.03,344.6
2023-05-04T07:37:03,42.805,6.029,-0.014,0.025,-0.014,103.0,102.0,101.0,13.4,1505.2,345.4,-0.8,1.8,2471.454,13.29,0.028,330.7
2023-05-04T07:40:03,42.805,6.029,0.003,0.032,-0.001,102.0,103.0,101.0,13.4,1505.2,326.9,-0.8,1.8,2471.442,13.29,0.032,5.4
2023-05-04T07:43:03,42.805,6.029,0.007,0.007,-0.024,103.0,103.0,101.0,13.3,1505.2,341.2,-0.8,1.8,2471.469,13.29,0.009,45.0
2023-05-04T07:46:03,42.805,6.029,0.0,0.022,-0.032,104.0,102.0,100.0,13.4,1505.2,325.3,-0.7,1.8,2471.449,13.29,0.022,0.0
2023-05-04T07:49:03,42.805,6.029,-0.012,0.037,-0.017,101.0,102.0,102.0,13.3,1505.2,343.7,-0.8,1.8,2471.459,13.29,0.038,342.0
2023-05-04T07:52:03,42.805,6.029,0.002,0.022,-0.059,102.0,101.0,101.0,13.4,1505.2,325.5,-0.8,1.9,2471.438,13.29,0.022,5.2
2023-05-04T07:55:03,42.805,6.029,-0.011,0.01,-0.046,102.0,104.0,100.0,13.3,1505.2,319.4,-0.8,1.8,2471.436,13.29,0.014,312.3
2023-05-04T07:58:03,42.805,6.029,0.0,0.01,-0.039,104.0,102.0,101.0,13.4,1505.2,328.0,-0.8,1.8,2471.436,13.29,0.01,0.0
2023-05-04T08:04:03,42.805,6.029,-0.022,0.018,-0.029,102.0,103.0,101.0,13.3,1505.2,329.8,-0.7,1.8,2471.51,13.29,0.028,309.3
2023-05-04T08:07:03,42.805,6.029,0.003,0.024,-0.024,102.0,102.0,102.0,13.3,1505.2,332.5,-0.8,1.8,2471.462,13.29,0.024,7.1
2023-05-04T08:10:03,42.805,6.029,-0.009,0.013,-0.055,102.0,101.0,100.0,13.4,1505.2,330.8,-0.8,1.8,2471.454,13.29,0.015,325.3
2023-05-04T08:13:03,42.805,6.029,-0.015,0.025,-0.034,102.0,102.0,102.0,13.3,1505.2,339.1,-0.8,1.8,2471.425,13.29,0.029,329.0
2023-05-04T08:16:03,42.805,6.029,-0.007,0.023,-0.02,101.0,103.0,101.0,13.3,1505.2,329.0,-0.8,1.8,2471.457,13.29,0.024,343.1
2023-05-04T08:19:03,42.805,6.029,-0.02,0.02,-0.021,102.0,102.0,102.0,13.3,1505.2,334.3,-0.8,1.8,2471.454,13.29,0.028,315.0
2023-05-04T08:22:03,42.805,6.029,0.013,0.018,-0.025,103.0,101.0,102.0,13.4,1505.2,337.3,-0.8,1.8,2471.437,13.29,0.022,35.8
2023-05-04T08:25:03,42.805,6.029,0.0,0.029,-0.031,102.0,102.0,100.0,13.4,1505.2,338.0,-0.8,1.8,2471.433,13.29,0.028,0.0
2023-05-04T08:28:03,42.805,6.029,-0.004,0.026,-0.039,102.0,105.0,100.0,13.4,1505.2,335.4,-0.8,1.8,2471.448,13.29,0.026,351.3
2023-05-04T08:31:03,42.805,6.029,-0.016,0.027,-0.037,103.0,103.0,102.0,13.4,1505.2,334.4,-0.8,1.8,2471.434,13.29,0.031,329.3
2023-05-04T08:34:03,42.805,6.029,-0.007,0.019,-0.036,103.0,102.0,102.0,13.4,1505.2,337.2,-0.7,1.8,2471.396,13.29,0.02,339.8
2023-05-04T08:37:03,42.805,6.029,0.003,0.028,-0.023,106.0,104.0,101.0,13.4,1505.2,330.2,-0.8,1.9,2471.44,13.29,0.028,6.1
2023-05-04T08:40:03,42.805,6.029,-0.001,0.004,-0.001,103.0,105.0,101.0,13.4,1505.2,330.1,-0.7,1.8,2471.416,13.29,0.004,346.0
2023-05-04T08:43:03,42.805,6.029,-0.014,0.01,-0.005,103.0,103.0,103.0,13.4,1505.2,316.3,-0.8,1.9,2471.405,13.29,0.017,305.5
2023-05-04T08:46:03,42.805,6.029,0.002,0.004,-0.007,104.0,103.0,103.0,13.4,1505.2,326.6,-0.8,1.8,2471.381,13.29,0.004,26.6
2023-05-04T08:49:03,42.805,6.029,-0.017,0.021,-0.011,104.0,103.0,101.0,13.4,1505.2,317.6,-0.7,1.8,2471.409,13.29,0.027,321.0
2023-05-04T08:52:03,42.805,6.029,0.004,0.024,-0.013,104.0,103.0,102.0,13.3,1505.2,339.3,-0.7,1.8,2471.43,13.29,0.024,9.5
2023-05-04T08:55:03,42.805,6.029,-0.007,0.007,-0.033,103.0,103.0,100.0,13.4,1505.2,332.4,-0.8,1.8,2471.422,13.29,0.009,315.0
2023-05-04T08:58:03,42.805,6.029,-0.009,0.024,-0.017,104.0,104.0,101.0,13.4,1505.2,342.8,-0.8,1.8,2471.406,13.29,0.025,339.4
2023-05-04T09:04:03,42.805,6.029,-0.005,0.01,-0.021,103.0,104.0,102.0,13.4,1505.2,319.8,-0.8,1.8,2471.452,13.29,0.011,333.4
2023-05-04T09:07:03,42.805,6.029,-0.009,0.033,0.021,104.0,104.0,102.0,13.4,1505.2,330.8,-0.8,1.8,2471.423,13.29,0.034,344.7
2023-05-04T09:10:03,42.805,6.029,-0.011,0.001,-0.038,104.0,104.0,102.0,13.4,1505.2,316.2,-0.8,1.8,2471.448,13.29,0.011,275.2
2023-05-04T09:13:03,42.805,6.029,0.017,0.017,-0.034,103.0,104.0,102.0,13.3,1505.2,324.2,-0.8,1.8,2471.405,13.29,0.024,45.0
2023-05-04T09:16:03,42.805,6.029,-0.025,0.001,-0.031,104.0,103.0,102.0,13.4,1505.2,316.3,-0.8,1.8,2471.41,13.29,0.025,272.3
2023-05-04T09:19:03,42.805,6.029,0.0,0.001,-0.052,105.0,105.0,102.0,13.4,1505.2,344.3,-0.8,1.8,2471.399,13.29,0.001,0.0
2023-05-04T09:22:03,42.805,6.029,0.022,-0.007,-0.034,104.0,104.0,102.0,13.4,1505.2,326.3,-0.8,1.8,2471.403,13.29,0.023,107.6
2023-05-04T09:25:03,42.805,6.029,0.004,0.02,0.009,104.0,104.0,103.0,13.4,1505.2,330.2,-0.8,1.8,2471.413,13.29,0.02,11.3
2023-05-04T09:28:03,42.805,6.029,0.004,0.017,-0.036,106.0,104.0,102.0,13.4,1505.2,340.8,-0.8,1.8,2471.382,13.29,0.017,13.2
2023-05-04T09:31:03,42.805,6.029,0.019,0.03,0.008,103.0,104.0,101.0,13.3,1505.2,328.2,-0.8,1.8,2471.419,13.29,0.035,32.3
2023-05-04T09:34:03,42.805,6.029,-0.015,0.017,-0.03,104.0,103.0,102.0,13.4,1505.2,332.9,-0.8,1.8,2471.356,13.3,0.022,318.6
2023-05-04T09:37:03,42.805,6.029,0.001,0.015,-0.026,106.0,103.0,101.0,13.4,1505.2,326.6,-0.8,1.8,2471.38,13.3,0.015,3.8
2023-05-04T09:40:03,42.805,6.029,-0.011,0.027,-0.031,104.0,102.0,102.0,13.4,1505.2,323.6,-0.8,1.8,2471.372,13.29,0.029,337.8
2023-05-04T09:43:03,42.805,6.029,0.001,0.011,-0.033,103.0,103.0,103.0,13.4,1505.2,328.6,-0.8,1.8,2471.346,13.3,0.011,5.2
2023-05-04T09:46:03,42.805,6.029,-0.017,0.015,-0.012,105.0,103.0,102.0,13.4,1505.2,320.3,-0.8,1.8,2471.397,13.3,0.022,311.4
2023-05-04T09:49:03,42.805,6.029,-0.001,0.024,0.0,106.0,104.0,103.0,13.4,1505.2,325.2,-0.8,1.8,2471.377,13.29,0.024,357.6
2023-05-04T09:52:03,42.805,6.029,0.01,0.014,-0.015,103.0,105.0,102.0,13.3,1505.2,328.4,-0.8,1.8,2471.354,13.29,0.017,35.5
2023-05-04T09:55:03,42.805,6.029,-0.011,0.004,-0.032,102.0,104.0,103.0,13.4,1505.2,332.6,-0.8,1.8,2471.363,13.29,0.011,290.0
2023-05-04T09:58:03,42.805,6.029,0.01,0.004,-0.064,104.0,102.0,103.0,13.4,1505.2,334.9,-0.7,1.8,2471.334,13.29,0.01,68.2